Location: Burgerwiesen
(48.6500°N, 15.6167°E)
Time: 17:53:23
(UTC+00:00)

SL-4 R/B - Pass Details

Date: 09 April 2020
Orbit: 428 x 666 km, 51.6° (Epoch: 28 May)

Event Time Altitude Azimuth Distance (km) Brightness Sun altitude
Rises 20:43:21 0° 285° (WNW) 2,397 6.1 -26.0°
Reaches altitude 10° 20:45:28 10° 290° (WNW) 1,538 5.0 -26.2°
Enters shadow 20:47:15 27° 302° (WNW) 867 3.6 -26.4°
